TimeCDT,TemperatureF,Dew PointF,Humidity,Sea Level PressureIn,VisibilityMPH,Wind Direction,Wind SpeedMPH,Gust SpeedMPH,PrecipitationIn,Events,Conditions,WindDirDegrees,DateUTC
12:02 AM,57.2,55.4,94,29.79,0.2,East,11.5,-,N/A,Fog,Fog,100,2013-05-28 05:02:00
12:14 AM,57.2,55.4,94,29.79,0.2,East,12.7,-,N/A,Fog,Fog,100,2013-05-28 05:14:00
12:53 AM,57.0,55.9,96,29.76,0.2,East,11.5,-,N/A,Fog,Fog,90,2013-05-28 05:53:00
1:53 AM,55.9,55.0,97,29.74,0.2,East,11.5,-,N/A,Fog,Fog,100,2013-05-28 06:53:00
2:53 AM,55.9,55.0,97,29.73,0.2,East,8.1,-,N/A,Fog,Fog,90,2013-05-28 07:53:00
3:53 AM,55.9,55.0,97,29.73,0.2,East,9.2,-,0.00,Fog-Rain,Light Rain,100,2013-05-28 08:53:00
4:00 AM,55.4,55.4,100,29.74,0.5,ESE,12.7,-,0.00,Fog-Rain,Light Rain,110,2013-05-28 09:00:00
4:21 AM,55.4,55.4,100,29.74,1.0,East,6.9,-,0.03,Rain,Rain,100,2013-05-28 09:21:00
4:40 AM,55.4,55.4,100,29.73,2.5,East,8.1,-,0.07,Rain,Light Rain,100,2013-05-28 09:40:00
4:48 AM,55.4,55.4,100,29.73,3.0,East,8.1,-,0.08,Rain,Light Rain,80,2013-05-28 09:48:00
4:53 AM,55.9,54.0,93,29.71,4.0,East,9.2,-,0.08,Rain,Light Rain,90,2013-05-28 09:53:00
5:23 AM,55.4,53.6,94,29.70,2.5,East,6.9,-,0.01,Rain,Light Rain,90,2013-05-28 10:23:00
5:36 AM,55.4,55.4,100,29.69,1.8,ENE,4.6,-,0.01,Rain,Light Rain,70,2013-05-28 10:36:00
5:48 AM,55.4,53.6,94,29.69,2.0,East,5.8,-,0.02,Rain,Light Rain,80,2013-05-28 10:48:00
5:53 AM,55.9,54.0,93,29.68,2.0,NE,6.9,-,0.02,Rain,Light Rain,40,2013-05-28 10:53:00
6:02 AM,55.4,53.6,94,29.69,1.0,ENE,6.9,-,N/A,,Overcast,60,2013-05-28 11:02:00
6:14 AM,55.4,53.6,94,29.70,0.5,ENE,6.9,-,N/A,Fog,Fog,70,2013-05-28 11:14:00
6:30 AM,55.4,53.6,94,29.71,0.2,East,8.1,-,N/A,Fog,Fog,80,2013-05-28 11:30:00
6:53 AM,55.9,54.0,93,29.68,0.2,ENE,8.1,-,N/A,Fog,Fog,60,2013-05-28 11:53:00
7:44 AM,55.4,55.4,100,29.70,0.8,SE,12.7,-,N/A,,Mist,130,2013-05-28 12:44:00
7:50 AM,55.4,55.4,100,29.70,2.0,SE,11.5,-,N/A,,Overcast,130,2013-05-28 12:50:00
7:51 AM,55.9,55.0,97,29.69,2.0,SE,12.7,-,N/A,,Overcast,130,2013-05-28 12:51:00
8:04 AM,55.4,55.4,100,29.71,3.0,SE,9.2,-,N/A,,Overcast,130,2013-05-28 13:04:00
8:26 AM,55.4,55.4,100,29.73,2.5,ESE,8.1,-,N/A,,Overcast,110,2013-05-28 13:26:00
8:53 AM,57.0,55.0,93,29.71,1.8,SE,8.1,-,N/A,,Overcast,130,2013-05-28 13:53:00
9:16 AM,57.2,55.4,94,29.73,0.5,SE,8.1,-,N/A,Fog,Fog,130,2013-05-28 14:16:00
9:30 AM,57.2,55.4,94,29.73,0.2,SE,6.9,-,N/A,Fog,Fog,130,2013-05-28 14:30:00
9:53 AM,57.9,57.0,97,29.72,0.2,ESE,5.8,-,N/A,Fog,Fog,120,2013-05-28 14:53:00
10:23 AM,57.2,57.2,100,29.73,0.5,Calm,Calm,-,N/A,Fog,Fog,0,2013-05-28 15:23:00
10:51 AM,60.8,59.0,94,29.71,1.5,East,5.8,-,N/A,,Overcast,100,2013-05-28 15:51:00
10:53 AM,61.0,59.0,93,29.69,1.8,East,6.9,-,N/A,,Overcast,100,2013-05-28 15:53:00
11:00 AM,60.8,60.8,100,29.71,2.0,ESE,6.9,-,N/A,,Overcast,110,2013-05-28 16:00:00
11:13 AM,60.8,60.8,100,29.71,3.0,SE,4.6,-,N/A,,Overcast,130,2013-05-28 16:13:00
11:53 AM,63.0,60.1,90,29.70,6.0,South,6.9,-,N/A,,Overcast,190,2013-05-28 16:53:00
12:02 PM,64.4,60.8,88,29.72,7.0,South,3.5,-,N/A,,Overcast,190,2013-05-28 17:02:00
12:53 PM,66.9,61.0,81,29.70,8.0,West,3.5,-,N/A,,Overcast,260,2013-05-28 17:53:00
1:04 PM,68.0,62.6,83,29.72,9.0,Variable,3.5,-,N/A,,Overcast,0,2013-05-28 18:04:00
1:50 PM,69.8,62.6,78,29.72,10.0,West,3.5,-,N/A,,Mostly Cloudy,280,2013-05-28 18:50:00
1:53 PM,70.0,62.1,76,29.70,10.0,Calm,Calm,-,N/A,,Mostly Cloudy,0,2013-05-28 18:53:00
2:53 PM,73.0,63.0,71,29.70,10.0,NW,3.5,-,N/A,,Mostly Cloudy,320,2013-05-28 19:53:00
3:43 PM,69.8,62.6,78,29.75,10.0,NW,16.1,-,N/A,,Overcast,320,2013-05-28 20:43:00
3:53 PM,66.9,62.1,84,29.73,9.0,NNW,17.3,25.3,N/A,,Overcast,330,2013-05-28 20:53:00
4:08 PM,69.8,62.6,78,29.74,8.0,North,16.1,-,N/A,,Mostly Cloudy,350,2013-05-28 21:08:00
4:17 PM,69.8,62.6,78,29.75,8.0,North,13.8,-,N/A,,Mostly Cloudy,350,2013-05-28 21:17:00
4:31 PM,69.8,62.6,78,29.75,10.0,NNW,12.7,-,N/A,,Mostly Cloudy,340,2013-05-28 21:31:00
4:53 PM,68.0,62.1,81,29.74,10.0,North,10.4,-,N/A,,Overcast,360,2013-05-28 21:53:00
5:53 PM,69.1,61.0,75,29.73,10.0,NNW,4.6,-,N/A,,Mostly Cloudy,340,2013-05-28 22:53:00
6:07 PM,69.8,62.6,78,29.74,10.0,North,9.2,-,N/A,,Scattered Clouds,360,2013-05-28 23:07:00
6:41 PM,69.8,62.6,78,29.76,10.0,North,5.8,-,N/A,,Mostly Cloudy,350,2013-05-28 23:41:00
6:48 PM,69.8,62.6,78,29.76,10.0,North,4.6,-,N/A,,Scattered Clouds,350,2013-05-28 23:48:00
6:53 PM,69.1,62.1,78,29.74,10.0,Variable,3.5,-,N/A,,Scattered Clouds,0,2013-05-28 23:53:00
7:50 PM,66.2,62.6,88,29.71,10.0,North,8.1,-,N/A,,Mostly Cloudy,10,2013-05-29 00:50:00
7:53 PM,66.0,62.1,87,29.70,10.0,North,8.1,-,N/A,,Scattered Clouds,10,2013-05-29 00:53:00
8:04 PM,66.2,60.8,83,29.72,10.0,North,8.1,-,N/A,,Mostly Cloudy,350,2013-05-29 01:04:00
8:13 PM,66.2,60.8,83,29.73,10.0,North,8.1,-,N/A,,Scattered Clouds,350,2013-05-29 01:13:00
8:22 PM,64.4,60.8,88,29.73,9.0,North,8.1,-,N/A,,Mostly Cloudy,350,2013-05-29 01:22:00
8:34 PM,64.4,60.8,88,29.74,8.0,North,6.9,-,N/A,,Scattered Clouds,360,2013-05-29 01:34:00
8:46 PM,64.4,60.8,88,29.74,8.0,North,4.6,-,N/A,,Mostly Cloudy,10,2013-05-29 01:46:00
8:53 PM,64.0,60.1,87,29.72,8.0,North,5.8,-,N/A,,Mostly Cloudy,10,2013-05-29 01:53:00
9:21 PM,62.6,60.8,94,29.76,8.0,North,4.6,-,N/A,,Scattered Clouds,10,2013-05-29 02:21:00
9:53 PM,60.1,57.0,90,29.76,8.0,North,5.8,-,N/A,,Partly Cloudy,360,2013-05-29 02:53:00
10:24 PM,60.8,57.2,88,29.79,7.0,North,3.5,-,N/A,,Mostly Cloudy,10,2013-05-29 03:24:00
10:53 PM,62.1,59.0,90,29.78,7.0,Calm,Calm,-,N/A,,Overcast,0,2013-05-29 03:53:00
11:23 PM,62.6,60.8,94,29.80,6.0,East,3.5,-,N/A,,Overcast,90,2013-05-29 04:23:00
11:53 PM,62.1,60.1,93,29.77,5.0,ENE,4.6,-,N/A,,Overcast,60,2013-05-29 04:53:00